This is the latest recevied weather packets stored in our database for station/object KQ4HDO. If no packets are shown the sender has not sent any weather packets the latest 10 day(s).
| Time | Temp. | Humidity | Pressure | Rain* | Wind** | Luminosity | Snow |
|---|---|---|---|---|---|---|---|
| 1777716603 | 7.78° C | 82% | 1017.2 hPa | 0 mm | - | - | - |
| 1777714803 | 7.78° C | 80% | 1017 hPa | 0 mm | - | - | - |
| 1777714203 | 8.33° C | 79% | 1016.9 hPa | 0 mm | - | - | - |
| 1777713603 | 8.33° C | 79% | 1016.9 hPa | 0 mm | - | - | - |
| 1777710003 | 7.78° C | 81% | 1016.6 hPa | 0 mm | - | - | - |
| 1777709403 | 7.78° C | 82% | 1016.6 hPa | 0 mm | - | - | - |
| 1777708503 | 7.22° C | 84% | 1016.5 hPa | 0 mm | - | - | - |
| 1777706703 | 7.78° C | 82% | 1016.6 hPa | 0 mm | - | - | - |
| 1777706103 | 7.78° C | 81% | 1016.6 hPa | 0 mm | - | - | - |
| 1777705803 | 7.78° C | 80% | 1016.6 hPa | 0 mm | - | - | - |
| 1777702503 | 8.89° C | 75% | 1016.6 hPa | 0 mm | - | - | - |
| 1777699803 | 9.44° C | 71% | 1016.6 hPa | 0 mm | - | - | - |
| 1777698903 | 10° C | 70% | 1016.5 hPa | 0 mm | - | - | - |
| 1777698004 | 10.56° C | 66% | 1016.6 hPa | 0 mm | - | - | - |
| 1777697403 | 11.11° C | 64% | 1016.6 hPa | 0 mm | - | - | - |
| 1777696503 | 11.11° C | 65% | 1016.6 hPa | 0 mm | - | - | - |
| 1777695603 | 10.56° C | 66% | 1016.6 hPa | 0 mm | - | - | - |
| 1777694403 | 10.56° C | 67% | 1016.8 hPa | 0 mm | - | - | - |
| 1777692303 | 9.44° C | 72% | 1016.9 hPa | 0 mm | - | - | - |
| 1777688703 | 11.67° C | 60% | 1016.2 hPa | 0 mm | - | - | - |
| 1777687803 | 11.67° C | 59% | 1016 hPa | 0 mm | - | - | - |
| 1777687503 | 12.22° C | 58% | 1015.9 hPa | 0 mm | - | - | - |
| 1777686137 | 13.33° C | 53% | 1015.5 hPa | 0 mm | - | - | - |
| 1777685703 | 13.89° C | 50% | 1015.4 hPa | 0 mm | - | - | - |
| 1777681803 | 15° C | 43% | 1014.9 hPa | 0 mm | - | - | - |
* Rain latest hour (hover to see other rain measurements)
** Current wind speed in m/s (hover to see current wind gust speed)